Retour au catalogue

STARLINK-33593

ActifCommunicationsVLEO
NORAD 62780·PAYLOAD·🇺🇸 United States

Lancé Jan 21, 2025 depuis Vandenberg Space Force Base

Loading…

Prochains Passages (prochaines 24 heures)

TLE

FraisSource: CelesTrak SupGP

Époque: Sep 15, 2026, 03:53 UTC

1 62780C 25015Y   26258.16229167  .00048471  00000+0  14323-2 0  2589
2 62780  53.1576 158.7087 0001279  86.0564 213.0017 15.34360960    18

Suivez STARLINK-33593 en temps réel avec AllMySat

Download on the App Store